Hourly Data Report for July 29, 2020

OTTAWA INTL A
ONTARIO
Current Station Operator: NAVCAN

45°19'00.000" N
75°40'00.000" W
114.90 m
6106001
71628
YOW

Download Data

Hourly Data (July 2020)
Hourly Data Report for July 29, 2020
TIME Temp Definition
°C
Dew Point Definition
°C
Rel Hum Definition
%
Wind Dir Definition
10's deg

Wind Spd Definition
km/h
Visibility Definition
km
Stn Press Definition
kPa
Hmdx Definition


Wind Chill Definition


Weather Definition


00:00 18.4 12.5 68 21 10 24.1 99.60     LegendNANA
01:00 18.2 12.6 69 21 10 24.1 99.61     Mainly Clear
02:00 17.8 13.4 75 19 8 24.1 99.61     LegendNANA
03:00 18.3 14.7 79 18 10 24.1 99.59     LegendNANA
04:00 18.3 15.4 83 22 9 24.1 99.63     Cloudy
05:00 18.5 15.8 84 17 4 24.1 99.64     LegendNANA
06:00 19.1 15.3 78 30 16 24.1 99.71     Rain Showers
07:00 20.3 16.0 76 12 10 24.1 99.68 25   Mainly Clear
08:00 22.1 16.9 72 16 12 24.1 99.67 27   LegendNANA
09:00 20.1 18.3 89 11 5 24.1 99.65 26   LegendNANA
10:00 22.4 18.3 77 7 8 24.1 99.65 29   Mostly Cloudy
11:00 24.9 19.2 70 31 5 24.1 99.58 32   LegendNANA
12:00 24.3 18.7 70 13 16 24.1 99.56 31   LegendNANA
13:00 25.6 17.6 61 34 5 24.1 99.53 31   Mainly Clear
14:00 27.0 15.8 49 32 9 24.1 99.45 31   LegendNANA
15:00 27.1 14.8 46 35 11 24.1 99.39 31   LegendNANA
16:00 23.7 19.3 76 9 10 24.1 99.38 31   Mostly Cloudy
17:00 21.0 15.8 72 34 30 4.8 99.37 25   Moderate Rain Showers
18:00 19.2 16.7 85 17 30 24.1 99.44     Thunderstorms,Moderate Rain Showers
19:00 17.5 15.9 90 15 14 24.1 99.54     Thunderstorms,Rain Showers
20:00 18.1 17.1 94 19 10 24.1 99.53     LegendNANA
21:00 18.7 17.9 95 32 9 24.1 99.57     LegendNANA
22:00 17.2 16.6 97 15 9 24.1 99.60     Mainly Clear
23:00 17.3 16.8 97 20 8 24.1 99.60     LegendNANA

Notes on Data Quality.

Legend

  • E = Estimated
  • M = Missing
  • NA = Not Available*
  • [empty] = Indicates an unobserved value
Date modified: